Temperature
18 18 18 18 18 18 18 18 18 18 18 18 17 17 17 18 18 18 18 18 18 18 18 18 18 18 18 18 18 18 18 18 17 17 18 18 18 18 17 17 17 17 17
17 17 17 18 18 17 18 17 17 18 18 18 18 17 18 18 18 18 18 18 18 18 18 18 18 18 18 18 18 18 18 18 17 17 17 17 17 17 17 17 17 17 17
17 17 17 17 17 17 17 17 17 17 17 17 17 17 17 17 17 18 18 18 18 18 18 18 18 18 18 18 18 18 18 18 17 17 17 17 17 17 17 17 17 17 17
17 17 17 17 17 17 16 16 17 17 17 17 17 17 17 17 17 17 17 17 18 18 18 18 18 18 18 18 18 18 18 18 18 18 18 17 17 17 17 17 17 17 17
16 16 16 16 16 16 16 16 16 16 16 16 17 17 17 17 17 17 17 17 17 17 17 17 18 18 18 18 18 18 18 18 18 18 18 18 17 17 17 17 17 17 17
16 16 16 16 16 16 16 16 15 16 16 16 16 16 17 17 17 17 17 17 17 17 17 17 17 17 18 18 18 18 18 18 18 18 18 18 18 17 17 17 17 17 17
15 15 15 15 15 15 15 15 15 15 15 16 16 16 17 17 17 17 17 17 17 17 17 17 17 17 17 17 17 18 18 18 18 18 18 18 18 18 18 17 17 17 17
15 15 15 15 15 15 15 15 15 15 15 16 16 16 17 17 17 17 17 17 17 17 17 17 17 17 17 17 17 18 18 18 17 17 17 18 17 18 18 18 18 17 17
14 14 14 14 15 15 15 15 15 15 15 16 16 16 17 17 18 18 18 18 18 18 18 18 17 17 17 17 17 17 17 17 17 17 17 17 17 17 17 18 18 18 17
14 14 14 14 14 14 14 15 15 15 15 16 16 16 17 17 17 18 18 18 18 18 18 18 18 18 18 17 17 17 17 17 17 17 17 17 17 17 17 17 17 17 17
14 14 14 14 14 14 14 14 14 15 15 15 16 16 16 17 17 17 18 18 18 18 18 18 18 18 18 17 17 17 17 17 17 17 17 17 17 17 17 17 17 17 17
13 14 14 13 13 13 13 14 14 14 14 15 15 16 16 16 17 18 18 18 18 18 18 18 18 18 17 17 17 17 17 17 17 17 17 17 17 17 17 17 17 17 17
12 13 13 13 13 12 13 13 13 13 14 14 15 15 16 16 17 17 18 18 19 19 18 18 18 17 17 17 17 17 17 17 17 17 17 17 17 17 17 17 17 17 17
11 12 12 12 12 12 12 12 12 12 13 13 14 14 15 16 16 17 17 18 18 19 18 18 18 17 17 17 17 17 17 17 17 17 17 17 17 17 17 17 17 17 16
10 11 11 11 11 11 11 11 12 12 12 12 13 13 14 15 16 16 17 17 18 18 18 18 18 17 17 17 17 16 16 16 17 17 17 17 17 17 17 17 17 16 16
9 9 10 10 10 10 11 11 11 11 11 12 12 13 13 14 14 15 16 17 17 17 18 18 18 17 17 16 16 16 16 16 16 17 17 17 17 17 17 17 17 16 16
9 9 9 9 9 9 10 10 10 11 11 11 11 12 12 13 13 14 15 15 16 16 17 17 17 17 16 16 16 15 15 16 16 17 17 17 17 17 17 17 17 17 16
8 8 8 8 8 9 9 9 10 10 11 11 11 11 11 12 12 13 14 14 15 16 16 16 16 16 16 16 16 15 15 15 16 16 16 17 17 17 17 17 17 16 16
8 8 8 8 8 8 8 9 9 10 10 10 11 11 11 11 11 12 13 13 14 15 15 16 16 16 15 15 15 14 14 14 15 15 16 16 16 16 16 16 16 16 16
8 7 7 7 7 8 8 8 8 9 9 10 10 10 11 11 11 11 12 12 13 14 14 15 15 15 15 15 15 14 13 13 13 14 15 15 15 15 16 16 16 16 16
7 7 7 7 7 7 7 8 8 8 9 9 10 10 10 10 11 11 11 11 12 13 13 14 14 15 15 14 14 14 13 12 12 12 13 13 14 14 14 15 15 15 15
7 7 7 7 7 7 7 7 8 8 8 9 9 9 10 10 10 10 10 11 11 12 12 13 13 14 14 14 14 13 13 12 12 12 12 12 12 13 13 13 13 14 14
7 7 7 7 6 7 7 7 7 7 8 8 8 9 9 10 10 10 10 10 10 11 12 12 13 13 14 14 14 13 13 12 12 12 12 11 11 12 12 12 12 12 13
7 7 7 7 6 6 6 6 7 7 7 8 8 8 9 9 10 10 10 10 10 11 11 11 12 13 13 13 13 14 13 12 12 11 11 11 11 11 11 11 11 12 12
7 7 7 6 6 6 6 6 6 6 7 7 8 8 9 9 10 10 10 10 10 10 11 11 11 12 12 13 13 13 12 12 11 11 11 11 11 11 11 11 11 11 11
7 7 7 6 6 6 6 6 6 6 6 7 7 8 8 9 9 9 10 10 10 10 10 11 11 11 11 12 12 13 13 12 12 11 11 11 11 11 10 10 10 10 11
Wind_Speed
6 6 6 5 6 8 7 8 8 11 12 9 10 10 10 12 13 12 9 18 21 23 23 22 21 21 21 21 21 22 23 22 21 21 20 20 19 18 18 17 17 16 15
5 6 6 6 6 8 7 7 10 10 9 9 10 10 9 10 12 12 11 14 19 23 23 23 22 23 23 22 23 23 24 24 23 23 21 21 21 20 20 20 19 18 18
4 5 6 7 7 9 9 7 9 8 9 9 10 11 10 9 9 11 13 13 15 19 22 23 24 24 25 25 24 24 25 26 26 25 24 23 22 23 22 22 22 21 20
6 4 6 6 6 7 6 8 8 9 9 9 8 9 10 9 11 10 13 15 15 15 20 25 25 25 26 27 26 26 26 27 27 27 27 26 24 25 24 24 23 23 23
6 4 4 5 4 5 5 7 7 8 9 9 9 9 9 10 10 12 11 12 15 16 17 22 27 28 28 28 28 27 27 27 27 28 28 27 27 26 26 25 25 25 25
7 5 4 5 4 3 4 4 6 6 6 7 10 10 9 10 9 10 12 11 12 17 19 19 19 24 29 29 28 27 27 27 28 28 29 28 27 27 27 26 26 26 26
6 4 5 5 3 3 3 4 4 5 5 6 6 6 7 10 10 10 10 10 12 13 16 17 17 18 19 28 29 28 28 27 27 28 28 28 28 28 28 27 27 27 27
5 5 5 5 5 4 4 3 2 3 4 4 4 4 4 5 7 12 10 11 12 10 12 15 16 17 16 16 22 28 28 28 28 28 28 28 29 28 28 28 29 28 28
5 3 4 4 5 5 4 3 3 3 3 4 5 5 3 3 4 7 11 11 10 9 10 10 10 14 17 14 16 24 29 28 28 28 28 28 28 28 28 29 29 28 28
6 4 3 3 5 5 4 4 3 3 3 4 5 5 5 2 2 1 5 8 9 8 7 8 9 9 14 13 14 17 25 26 25 26 26 26 27 27 28 28 27 27 27
7 5 2 1 3 4 4 5 5 4 3 4 4 4 5 4 5 3 3 3 5 6 6 5 4 5 9 10 11 15 23 25 24 23 22 23 24 26 27 27 26 26 27
6 5 3 1 2 3 4 5 5 6 4 4 5 5 4 4 4 4 4 4 5 6 7 6 5 4 4 7 10 12 20 22 22 22 20 20 21 23 25 26 26 26 26
8 7 6 2 3 3 4 4 5 5 5 6 5 5 6 6 5 4 4 4 4 4 5 5 5 5 4 5 8 10 13 16 17 18 18 18 19 21 23 25 25 25 25
9 9 8 7 6 5 6 5 4 5 5 5 6 6 6 7 6 5 4 3 2 3 5 5 5 6 4 6 10 9 9 12 14 16 16 17 18 19 21 22 23 24 24
11 10 10 9 9 8 7 6 6 6 5 5 5 5 5 6 7 7 5 3 3 4 5 5 4 6 6 7 9 6 7 9 11 12 14 15 15 17 18 20 21 22 22
10 10 10 10 10 10 9 8 7 8 7 7 6 6 5 5 5 6 6 5 4 3 3 3 4 8 7 8 8 6 8 9 6 7 10 12 13 14 15 17 18 18 19
9 10 10 10 11 11 10 9 9 9 9 8 7 7 7 6 5 5 5 6 5 4 4 3 4 8 7 9 7 7 9 7 6 4 6 8 10 11 12 13 14 14 15
10 10 10 11 12 12 11 11 11 12 10 10 10 9 8 7 7 5 5 6 6 5 4 4 5 6 7 9 8 6 5 8 8 9 9 9 9 10 10 11 12 13 13
10 11 10 11 12 12 12 12 12 12 12 11 11 11 10 9 8 6 6 6 5 5 3 4 5 6 7 9 9 8 9 7 8 10 13 13 14 15 14 14 15 16 16
11 11 11 11 11 12 12 13 13 13 12 12 11 11 10 10 10 9 8 7 6 5 4 4 4 6 7 9 9 9 7 6 6 7 10 12 16 17 17 17 17 18 19
14 12 11 12 12 12 13 13 12 15 13 13 12 12 12 12 13 11 9 8 7 6 5 5 6 5 6 10 9 7 9 8 5 4 6 6 8 9 11 14 16 18 20
12 12 12 14 14 15 16 14 11 11 11 11 11 12 12 12 14 15 14 12 10 8 8 6 6 7 8 8 8 10 11 9 5 4 5 6 6 7 6 9 14 19 20
12 13 13 14 14 14 17 17 16 13 12 11 11 11 14 15 14 11 13 14 13 12 10 7 7 7 6 7 9 11 12 10 6 7 7 5 6 7 7 11 16 18 20
12 12 13 14 13 15 17 17 16 14 13 12 12 11 11 11 11 11 12 12 11 12 12 9 8 7 5 4 6 8 10 9 10 7 5 4 4 5 7 10 14 16 19
12 13 13 13 13 14 16 15 14 11 11 13 13 12 11 12 12 13 11 11 11 10 12 13 10 8 8 8 7 7 11 13 9 4 3 4 5 5 6 6 10 14 16
13 13 13 12 12 12 13 14 13 9 10 10 10 9 11 12 14 14 11 10 10 9 9 11 9 9 8 9 11 10 12 14 10 5 5 5 8 5 5 3 5 9 11
Wind_Direction
257 259 267 270 256 238 219 222 223 215 215 219 220 214 210 213 225 235 217 193 192 194 197 201 204 210 215 217 217 215 213 211 209 209 209 210 210 208 206 204 202 200 199
276 278 273 270 265 262 257 236 232 230 222 220 224 224 215 215 222 231 228 210 205 205 206 208 211 214 217 219 219 217 213 212 211 211 213 214 213 213 211 208 205 204 203
304 297 284 272 263 261 261 257 247 240 234 226 225 228 224 218 217 220 229 225 217 216 216 217 218 218 219 220 220 218 215 212 210 210 211 215 217 216 215 212 208 207 206
317 307 292 281 272 262 256 253 248 245 240 235 231 230 227 220 220 217 222 226 224 224 221 221 221 223 223 222 221 219 215 212 209 210 210 213 215 216 216 215 212 209 209
322 308 298 291 291 276 259 257 249 239 235 236 238 236 231 223 220 222 220 223 225 225 226 223 220 223 224 225 222 220 215 212 209 210 211 213 215 216 216 216 214 212 210
330 315 298 288 283 282 276 263 261 251 236 233 241 242 229 227 218 219 220 221 223 225 225 226 219 224 224 224 222 218 215 212 210 211 212 213 215 215 215 216 215 214 212
339 326 323 309 284 268 263 256 246 253 244 232 237 248 239 225 215 216 216 219 221 221 220 220 215 214 217 222 220 216 215 213 212 212 212 212 214 215 214 214 215 215 213
336 333 335 321 314 291 284 285 266 259 259 234 224 238 241 229 222 219 210 214 219 217 218 218 208 204 206 206 215 216 216 215 214 214 213 212 213 213 212 213 214 214 213
319 324 323 324 320 309 288 275 259 252 264 272 237 228 236 237 234 209 206 208 207 207 213 213 202 198 200 199 201 211 215 214 215 215 214 212 212 213 213 213 214 213 213
296 291 308 333 330 319 320 304 281 255 247 269 285 259 248 261 272 270 203 201 196 199 206 212 207 188 193 195 196 198 209 213 216 217 216 214 213 213 214 215 215 214 213
281 269 263 318 331 324 340 339 333 306 262 253 272 285 266 250 228 240 228 206 189 187 196 206 207 183 185 188 190 190 196 205 210 213 215 214 213 213 214 215 216 215 214
296 291 269 231 303 327 338 328 323 314 306 288 281 280 278 262 238 232 222 207 192 194 184 189 194 180 172 180 194 186 187 196 202 207 210 213 215 214 214 215 216 217 217
314 316 321 296 279 279 288 292 294 295 302 300 289 282 281 277 280 262 237 224 201 184 166 174 176 172 179 151 137 148 174 186 195 203 208 213 216 216 214 214 215 218 219
299 305 311 307 288 266 263 263 274 276 273 278 285 294 296 293 297 290 269 245 225 194 173 175 166 164 151 125 134 147 164 182 196 203 208 212 215 215 214 213 214 216 217
308 313 319 309 300 287 265 251 251 256 262 258 266 276 287 291 301 299 292 272 233 220 207 183 162 151 134 119 143 157 146 172 192 201 205 207 209 211 211 211 211 213 215
300 300 296 295 292 287 277 257 249 244 241 242 239 246 257 275 285 292 299 287 263 242 235 188 164 148 144 143 146 136 117 137 159 187 197 201 202 203 204 205 206 209 211
307 303 300 296 292 286 279 268 256 248 240 240 239 235 232 240 262 275 286 287 272 253 241 220 145 140 132 129 136 137 144 131 101 116 159 174 181 185 191 192 192 193 196
295 295 293 292 288 285 280 274 265 257 243 236 232 230 229 229 230 244 260 272 272 258 235 214 159 151 149 138 138 138 122 101 93 86 100 116 129 139 150 156 158 159 159
292 292 289 286 284 283 281 278 271 263 254 244 234 227 224 220 223 223 231 248 264 264 253 228 190 169 158 144 133 118 101 99 94 93 88 91 99 106 113 121 126 129 131
294 289 286 285 282 280 278 276 273 267 260 253 242 232 224 220 218 215 221 224 233 247 247 240 216 177 165 152 141 133 123 110 99 89 83 88 91 92 99 107 113 117 120
293 290 290 287 283 279 272 265 262 266 259 253 247 238 230 223 216 212 215 212 213 218 224 229 225 201 175 163 161 150 137 121 104 114 108 98 92 86 87 95 106 114 117
292 291 288 285 282 279 279 281 275 274 272 259 251 244 238 232 222 210 208 199 198 207 209 213 220 211 198 176 167 156 145 146 136 135 115 97 94 91 83 88 109 114 115
295 290 286 282 278 273 269 268 265 265 266 258 250 245 242 233 214 206 204 200 202 204 201 198 209 210 199 183 170 164 162 159 137 143 121 95 85 82 79 93 108 114 116
294 290 286 283 279 274 267 258 254 256 257 253 245 240 235 241 229 208 202 203 206 205 202 204 211 205 202 192 178 170 156 128 117 124 119 107 101 93 90 90 104 115 119
295 290 288 283 278 274 268 258 245 252 249 248 242 236 229 229 225 211 206 203 203 203 204 205 203 195 191 199 178 158 151 147 141 136 121 117 127 106 90 91 101 113 121
296 295 292 288 284 277 270 256 236 243 243 244 241 236 232 230 216 202 204 202 205 202 191 190 195 195 195 194 182 175 170 162 150 146 159 130 147 135 110 100 117 123 120
Height
1515 1516 1516 1517 1517 1516 1516 1517 1518 1519 1520 1522 1524 1526 1528 1530 1533 1535 1537 1538 1541 1543 1546 1548 1551 1553 1556 1558 1561 1563 1565 1568 1570 1572 1575 1577 1580 1582 1584 1587 1589 1592 1594
1511 1511 1510 1510 1510 1510 1510 1511 1511 1513 1514 1516 1518 1520 1522 1524 1526 1529 1531 1533 1534 1537 1540 1543 1545 1548 1550 1553 1556 1558 1561 1563 1566 1568 1571 1574 1576 1579 1581 1584 1587 1589 1592
1506 1505 1504 1503 1503 1503 1504 1504 1505 1507 1508 1510 1512 1514 1516 1518 1520 1522 1524 1527 1529 1531 1533 1536 1539 1542 1545 1548 1550 1553 1555 1558 1561 1564 1567 1569 1572 1575 1578 1581 1583 1586 1589
1502 1501 1499 1497 1497 1496 1496 1496 1497 1499 1501 1503 1506 1508 1510 1512 1513 1515 1517 1519 1522 1524 1526 1529 1532 1535 1538 1541 1544 1547 1550 1553 1556 1559 1562 1565 1568 1571 1574 1577 1580 1583 1585
1498 1496 1494 1492 1491 1490 1489 1490 1491 1493 1495 1497 1499 1502 1503 1505 1506 1508 1509 1512 1514 1516 1519 1522 1525 1528 1531 1534 1538 1541 1544 1547 1550 1553 1556 1559 1563 1566 1569 1572 1575 1578 1581
1495 1493 1491 1489 1487 1485 1484 1484 1485 1487 1489 1491 1494 1496 1497 1498 1500 1501 1502 1504 1507 1509 1511 1515 1518 1521 1525 1528 1531 1535 1538 1541 1544 1548 1551 1554 1557 1560 1564 1567 1570 1573 1577
1493 1490 1488 1486 1484 1483 1482 1482 1482 1483 1485 1487 1489 1491 1491 1493 1493 1494 1496 1498 1500 1502 1505 1508 1512 1514 1518 1521 1524 1528 1532 1535 1538 1542 1545 1548 1552 1555 1558 1561 1565 1568 1571
1490 1488 1486 1483 1482 1480 1480 1480 1479 1480 1482 1484 1486 1487 1487 1488 1488 1489 1490 1492 1494 1497 1499 1502 1505 1509 1513 1515 1518 1522 1525 1528 1532 1535 1539 1542 1546 1549 1552 1556 1559 1563 1566
1488 1486 1483 1481 1479 1478 1478 1477 1478 1478 1479 1480 1482 1484 1484 1483 1484 1484 1485 1487 1490 1492 1494 1498 1501 1504 1508 1511 1513 1516 1519 1522 1525 1529 1533 1536 1540 1543 1547 1550 1554 1557 1561
1485 1483 1481 1479 1478 1476 1475 1475 1475 1476 1477 1477 1478 1480 1482 1482 1482 1481 1483 1484 1487 1489 1491 1494 1497 1500 1503 1506 1508 1511 1514 1517 1520 1523 1526 1530 1534 1537 1541 1545 1548 1552 1555
1482 1480 1478 1477 1475 1474 1473 1473 1473 1473 1474 1474 1475 1477 1478 1479 1480 1481 1481 1483 1485 1486 1488 1491 1494 1496 1499 1502 1504 1506 1509 1512 1515 1518 1521 1524 1528 1531 1535 1539 1543 1546 1550
1478 1477 1475 1473 1472 1472 1471 1470 1470 1470 1470 1471 1472 1473 1475 1476 1477 1478 1479 1480 1482 1484 1485 1488 1490 1493 1495 1498 1500 1502 1504 1507 1510 1513 1516 1519 1522 1526 1529 1533 1537 1540 1544
1474 1473 1472 1470 1469 1468 1468 1467 1467 1466 1466 1467 1467 1469 1471 1472 1474 1475 1477 1478 1479 1481 1482 1485 1487 1490 1492 1494 1495 1498 1500 1503 1505 1508 1511 1514 1517 1520 1524 1527 1531 1535 1538
1470 1469 1467 1466 1465 1464 1464 1463 1463 1463 1463 1463 1463 1464 1466 1467 1469 1471 1473 1474 1476 1477 1479 1481 1483 1486 1488 1489 1491 1494 1496 1498 1501 1503 1506 1509 1512 1515 1519 1522 1526 1529 1533
1464 1463 1461 1460 1459 1459 1459 1458 1458 1458 1459 1458 1458 1459 1460 1462 1464 1466 1468 1470 1473 1474 1476 1478 1479 1482 1484 1486 1487 1490 1492 1494 1496 1498 1501 1504 1507 1510 1514 1517 1521 1524 1528
1458 1456 1455 1454 1453 1453 1453 1453 1453 1453 1453 1453 1454 1454 1455 1457 1459 1461 1463 1465 1468 1470 1472 1473 1475 1477 1480 1482 1484 1486 1488 1490 1491 1494 1496 1500 1503 1506 1510 1513 1517 1520 1523
1452 1450 1449 1447 1446 1446 1446 1446 1446 1447 1447 1448 1449 1449 1449 1451 1452 1455 1457 1460 1462 1466 1468 1470 1472 1474 1477 1479 1481 1484 1485 1487 1488 1490 1493 1496 1499 1502 1506 1509 1513 1516 1519
1447 1444 1442 1440 1439 1439 1439 1439 1439 1440 1441 1442 1443 1443 1444 1445 1446 1448 1451 1453 1457 1460 1464 1466 1468 1470 1473 1476 1479 1481 1483 1483 1485 1487 1490 1492 1495 1498 1502 1506 1509 1512 1515
1441 1438 1436 1434 1432 1431 1431 1431 1431 1432 1433 1434 1436 1437 1438 1439 1439 1441 1443 1447 1450 1454 1457 1461 1464 1467 1471 1473 1476 1479 1480 1481 1483 1485 1487 1489 1492 1495 1499 1502 1505 1508 1511
1435 1432 1430 1427 1426 1424 1423 1423 1423 1424 1425 1426 1428 1430 1431 1432 1433 1435 1437 1440 1444 1447 1451 1455 1460 1463 1467 1470 1472 1475 1477 1479 1481 1483 1485 1487 1490 1493 1496 1499 1502 1505 1507
1429 1426 1423 1420 1418 1417 1416 1415 1415 1415 1417 1418 1420 1422 1424 1426 1428 1429 1431 1433 1437 1440 1444 1448 1453 1458 1462 1465 1468 1471 1474 1477 1480 1482 1483 1486 1488 1491 1494 1497 1500 1503 1505
1422 1419 1416 1413 1410 1409 1408 1408 1407 1407 1408 1409 1411 1414 1417 1420 1421 1424 1425 1427 1430 1433 1437 1442 1446 1451 1455 1459 1464 1467 1470 1473 1478 1481 1483 1485 1488 1490 1493 1496 1498 1501 1504
1416 1412 1408 1405 1402 1399 1398 1398 1398 1398 1399 1400 1403 1406 1409 1412 1415 1417 1419 1421 1424 1427 1431 1436 1440 1444 1449 1454 1458 1462 1466 1470 1473 1477 1481 1484 1487 1490 1493 1496 1498 1501 1503
1409 1405 1401 1397 1393 1391 1390 1389 1388 1389 1389 1391 1394 1398 1401 1405 1408 1411 1413 1415 1417 1420 1424 1428 1434 1439 1444 1448 1453 1458 1462 1467 1472 1476 1480 1482 1486 1489 1492 1495 1498 1501 1503
1402 1398 1393 1389 1386 1382 1381 1379 1379 1379 1381 1383 1387 1390 1394 1398 1401 1405 1408 1410 1412 1414 1418 1422 1427 1432 1437 1442 1447 1453 1457 1462 1466 1472 1476 1479 1483 1486 1490 1494 1497 1500 1503
1396 1391 1387 1383 1379 1375 1373 1371 1371 1372 1373 1376 1380 1384 1388 1392 1396 1399 1402 1405 1408 1410 1413 1416 1420 1425 1430 1436 1441 1446 1450 1455 1460 1466 1471 1475 1479 1484 1488 1492 1495 1498 1501